Location: Woodhurst
(52.3667°N, 0.0667°W)
Time: 06:36:21
(UTC+00:00)

Cosmos 1125 Rocket - Pass Details

Date: 19 May 2025
Orbit: 753 x 776 km, 74.0° (Epoch: 18 June)

Event Time Altitude Azimuth Distance (km) Brightness Sun altitude
Rises 21:01:03 0° 333° (NNW) 3,269 8.6 -8.2°
Reaches altitude 10° 21:03:27 10° 332° (NNW) 2,338 7.5 -8.5°
Maximum altitude 21:08:45 76° 248° (WSW) 804 3.7 -9.0°
Drops below altitude 10° 21:14:01 10° 163° (SSE) 2,318 5.4 -9.5°
Enters shadow 21:14:02 10° 163° (SSE) 2,326 5.4 -9.5°
